Location: Evergreen Manor
(41.4083°N, 81.4939°W)
Time: 19:46:42
(UTC+00:00)

Cosmos 1634 Rocket - Pass Details

Date: 11 December 2019
Orbit: 960 x 992 km, 82.9° (Epoch: 18 January)

Event Time Altitude Azimuth Distance (km) Brightness Sun altitude
Rises 10:18:51 0° 178° (S) 3,655 7.1 -26.0°
Reaches altitude 10° 10:21:22 10° 176° (S) 2,707 6.5 -25.5°
Maximum altitude 10:27:31 70° 94° (E) 1,028 4.2 -24.4°
Drops below altitude 10° 10:33:39 10° 12° (NNE) 2,707 6.3 -23.2°
Sets 10:36:10 0° 10° (N) 3,655 7.0 -22.8°
